Wetterdaten: Samstag, 15.03.2014
Datum Zeit Temperatur Luftfeuchte Luftdruck Regen Wind Richtung Richtung Taupunkt Windchill Windben
15.03.2014 00:00 3,6 C 81 % 1023,0 hPa 0,0 l/m 0,0 km/h (0 Bft) SW 225 0,7 C 16,1 C 0,0 km/h (0 Bft)
15.03.2014 00:05 3,0 C 80 % 1022,8 hPa 0,0 l/m 0,0 km/h (0 Bft) SW 225 -0,1 C 16,1 C 0,0 km/h (0 Bft)
15.03.2014 00:10 2,0 C 79 % 1022,8 hPa 0,0 l/m 0,0 km/h (0 Bft) SW 225 -1,2 C 16,1 C 0,0 km/h (0 Bft)
15.03.2014 00:15 1,8 C 80 % 1022,8 hPa 0,0 l/m 0,0 km/h (0 Bft) SW 225 -1,3 C 16,1 C 0,0 km/h (0 Bft)
15.03.2014 00:20 1,7 C 81 % 1022,8 hPa 0,0 l/m 0,0 km/h (0 Bft) SW 225 -1,2 C 16,1 C 0,0 km/h (0 Bft)
15.03.2014 00:25 1,6 C 81 % 1022,6 hPa 0,0 l/m 0,0 km/h (0 Bft) SW 225 -1,3 C 16,1 C 0,0 km/h (0 Bft)
15.03.2014 00:30 1,4 C 81 % 1022,6 hPa 0,0 l/m 0,0 km/h (0 Bft) SW 225 -1,5 C 16,1 C 0,0 km/h (0 Bft)
15.03.2014 00:33 1,4 C 82 % 1022,6 hPa 0,0 l/m 0,0 km/h (0 Bft) SW 225 -1,3 C 16,1 C 0,0 km/h (0 Bft)
15.03.2014 00:35 1,4 C 82 % 1022,6 hPa 0,0 l/m 0,0 km/h (0 Bft) SW 225 -1,3 C 16,1 C 0,0 km/h (0 Bft)
15.03.2014 00:40 1,5 C 83 % 1022,6 hPa 0,0 l/m 0,0 km/h (0 Bft) SW 225 -1,1 C 16,1 C 0,0 km/h (0 Bft)
15.03.2014 00:45 1,4 C 83 % 1022,4 hPa 0,0 l/m 0,0 km/h (0 Bft) SW 225 -1,2 C 16,1 C 0,0 km/h (0 Bft)
15.03.2014 00:50 2,4 C 84 % 1022,4 hPa 0,0 l/m 0,0 km/h (0 Bft) SW 225 -0,0 C 16,1 C 0,0 km/h (0 Bft)
15.03.2014 00:55 3,1 C 83 % 1022,4 hPa 0,0 l/m 0,0 km/h (0 Bft) SW 225 0,5 C 16,1 C 0,0 km/h (0 Bft)
15.03.2014 01:00 5,3 C 79 % 1022,4 hPa 0,0 l/m 0,0 km/h (0 Bft) SW 225 2,0 C 16,1 C 0,0 km/h (0 Bft)
15.03.2014 01:05 5,6 C 76 % 1022,1 hPa 0,0 l/m 0,0 km/h (0 Bft) SW 225 1,7 C 16,1 C 0,0 km/h (0 Bft)
15.03.2014 01:10 6,4 C 70 % 1022,1 hPa 0,0 l/m 0,0 km/h (0 Bft) SW 225 1,3 C 16,1 C 0,0 km/h (0 Bft)
15.03.2014 01:15 6,3 C 69 % 1022,1 hPa 0,0 l/m 0,0 km/h (0 Bft) SW 225 1,0 C 16,1 C 0,0 km/h (0 Bft)
15.03.2014 01:20 6,2 C 68 % 1022,1 hPa 0,0 l/m 0,0 km/h (0 Bft) SW 225 0,7 C 16,1 C 0,0 km/h (0 Bft)
15.03.2014 01:25 6,1 C 67 % 1021,9 hPa 0,0 l/m 0,0 km/h (0 Bft) SW 225 0,4 C 16,1 C 0,0 km/h (0 Bft)
15.03.2014 01:30 5,9 C 69 % 1021,9 hPa 0,0 l/m 0,0 km/h (0 Bft) SW 225 0,7 C 16,1 C 0,0 km/h (0 Bft)
15.03.2014 01:35 6,1 C 68 % 1021,9 hPa 0,0 l/m 0,0 km/h (0 Bft) SW 225 0,6 C 16,1 C 0,0 km/h (0 Bft)
15.03.2014 01:40 6,6 C 66 % 1021,9 hPa 0,0 l/m 0,0 km/h (0 Bft) SW 225 0,7 C 16,1 C 0,0 km/h (0 Bft)
15.03.2014 01:45 6,7 C 66 % 1021,7 hPa 0,0 l/m 0,0 km/h (0 Bft) SW 225 0,8 C 16,1 C 0,0 km/h (0 Bft)
15.03.2014 01:50 6,6 C 66 % 1021,7 hPa 0,0 l/m 0,0 km/h (0 Bft) SW 225 0,7 C 16,1 C 0,0 km/h (0 Bft)
15.03.2014 01:55 6,8 C 66 % 1021,7 hPa 0,0 l/m 0,0 km/h (0 Bft) SW 225 0,9 C 16,1 C 0,0 km/h (0 Bft)
15.03.2014 02:00 6,9 C 65 % 1021,7 hPa 0,0 l/m 0,0 km/h (0 Bft) SW 225 0,8 C 16,1 C 0,0 km/h (0 Bft)
15.03.2014 02:05 7,0 C 64 % 1021,0 hPa 0,0 l/m 0,0 km/h (0 Bft) SW 225 0,7 C 16,1 C 0,0 km/h (0 Bft)
15.03.2014 02:10 6,7 C 65 % 1021,0 hPa 0,0 l/m 0,0 km/h (0 Bft) SW 225 0,6 C 16,1 C 0,0 km/h (0 Bft)
15.03.2014 02:15 7,0 C 64 % 1021,0 hPa 0,0 l/m 0,0 km/h (0 Bft) SW 225 0,7 C 16,1 C 0,0 km/h (0 Bft)
15.03.2014 02:20 6,8 C 64 % 1021,0 hPa 0,0 l/m 0,0 km/h (0 Bft) SW 225 0,5 C 16,1 C 0,0 km/h (0 Bft)
15.03.2014 02:25 6,7 C 64 % 1020,7 hPa 0,0 l/m 0,0 km/h (0 Bft) SW 225 0,4 C 16,1 C 0,0 km/h (0 Bft)
15.03.2014 02:30 7,0 C 63 % 1020,7 hPa 0,0 l/m 0,0 km/h (0 Bft) SW 225 0,4 C 16,1 C 0,0 km/h (0 Bft)
15.03.2014 02:35 6,8 C 63 % 1020,7 hPa 0,0 l/m 0,0 km/h (0 Bft) SW 225 0,3 C 16,1 C 0,0 km/h (0 Bft)
15.03.2014 02:40 6,7 C 63 % 1020,7 hPa 0,0 l/m 0,0 km/h (0 Bft) SW 225 0,2 C 16,1 C 0,0 km/h (0 Bft)
15.03.2014 02:45 4,9 C 64 % 1020,5 hPa 0,0 l/m 0,0 km/h (0 Bft) SW 225 -1,3 C 16,1 C 0,0 km/h (0 Bft)
15.03.2014 02:50 4,2 C 67 % 1020,5 hPa 0,0 l/m 0,0 km/h (0 Bft) SW 225 -1,4 C 16,1 C 0,0 km/h (0 Bft)
15.03.2014 02:55 4,6 C 71 % 1020,5 hPa 0,0 l/m 0,0 km/h (0 Bft) SW 225 -0,2 C 16,1 C 0,0 km/h (0 Bft)
15.03.2014 03:00 4,2 C 68 % 1020,5 hPa 0,0 l/m 0,0 km/h (0 Bft) SW 225 -1,2 C 16,1 C 0,0 km/h (0 Bft)
15.03.2014 03:05 5,0 C 70 % 1020,2 hPa 0,0 l/m 0,0 km/h (0 Bft) SW 225 -0,0 C 16,1 C 0,0 km/h (0 Bft)
15.03.2014 03:10 5,0 C 70 % 1020,2 hPa 0,0 l/m 0,0 km/h (0 Bft) SW 225 -0,0 C 16,1 C 0,0 km/h (0 Bft)
15.03.2014 03:15 5,6 C 69 % 1020,2 hPa 0,0 l/m 0,0 km/h (0 Bft) SW 225 0,4 C 16,1 C 0,0 km/h (0 Bft)
15.03.2014 03:20 6,0 C 68 % 1020,2 hPa 0,0 l/m 0,0 km/h (0 Bft) SW 225 0,6 C 16,1 C 0,0 km/h (0 Bft)
15.03.2014 03:25 6,4 C 67 % 1020,5 hPa 0,0 l/m 0,0 km/h (0 Bft) SW 225 0,7 C 16,1 C 0,0 km/h (0 Bft)
15.03.2014 03:30 5,7 C 68 % 1020,5 hPa 0,0 l/m 0,0 km/h (0 Bft) SW 225 0,3 C 16,1 C 0,0 km/h (0 Bft)
15.03.2014 03:35 5,6 C 69 % 1020,5 hPa 0,0 l/m 0,0 km/h (0 Bft) SW 225 0,4 C 16,1 C 0,0 km/h (0 Bft)
15.03.2014 03:40 5,7 C 69 % 1020,5 hPa 0,0 l/m 0,0 km/h (0 Bft) SW 225 0,5 C 16,1 C 0,0 km/h (0 Bft)
15.03.2014 03:45 5,7 C 69 % 1020,6 hPa 0,0 l/m 0,0 km/h (0 Bft) SW 225 0,5 C 16,1 C 0,0 km/h (0 Bft)
15.03.2014 03:50 6,1 C 67 % 1020,6 hPa 0,0 l/m 0,0 km/h (0 Bft) SW 225 0,4 C 16,1 C 0,0 km/h (0 Bft)
15.03.2014 03:55 5,7 C 68 % 1020,6 hPa 0,0 l/m 0,0 km/h (0 Bft) SW 225 0,3 C 16,1 C 0,0 km/h (0 Bft)
15.03.2014 04:00 5,9 C 68 % 1020,6 hPa 0,0 l/m 0,0 km/h (0 Bft) SW 225 0,5 C 16,1 C 0,0 km/h (0 Bft)
15.03.2014 04:05 6,2 C 67 % 1019,8 hPa 0,0 l/m 0,0 km/h (0 Bft) SW 225 0,5 C 16,1 C 0,0 km/h (0 Bft)
15.03.2014 04:10 6,3 C 66 % 1019,8 hPa 0,0 l/m 0,0 km/h (0 Bft) SW 225 0,4 C 16,1 C 0,0 km/h (0 Bft)
15.03.2014 04:15 6,2 C 66 % 1019,8 hPa 0,0 l/m 0,0 km/h (0 Bft) SW 225 0,3 C 16,1 C 0,0 km/h (0 Bft)
15.03.2014 04:20 5,3 C 67 % 1019,8 hPa 0,0 l/m 0,0 km/h (0 Bft) SW 225 -0,3 C 16,1 C 0,0 km/h (0 Bft)
15.03.2014 04:25 4,2 C 67 % 1019,9 hPa 0,0 l/m 0,0 km/h (0 Bft) SW 225 -1,4 C 16,1 C 0,0 km/h (0 Bft)
15.03.2014 04:30 3,4 C 68 % 1019,9 hPa 0,0 l/m 0,0 km/h (0 Bft) SW 225 -1,9 C 16,1 C 0,0 km/h (0 Bft)
15.03.2014 04:35 3,5 C 69 % 1019,9 hPa 0,0 l/m 0,0 km/h (0 Bft) SW 225 -1,6 C 16,1 C 0,0 km/h (0 Bft)
15.03.2014 04:40 4,2 C 72 % 1019,9 hPa 0,0 l/m 0,0 km/h (0 Bft) SW 225 -0,4 C 16,1 C 0,0 km/h (0 Bft)
15.03.2014 04:45 3,8 C 71 % 1020,2 hPa 0,0 l/m 0,0 km/h (0 Bft) SW 225 -1,0 C 16,1 C 0,0 km/h (0 Bft)
15.03.2014 04:50 3,6 C 72 % 1020,2 hPa 0,0 l/m 0,0 km/h (0 Bft) SW 225 -1,0 C 16,1 C 0,0 km/h (0 Bft)
15.03.2014 04:55 5,3 C 74 % 1020,2 hPa 0,0 l/m 0,0 km/h (0 Bft) SW 225 1,0 C 16,1 C 0,0 km/h (0 Bft)
15.03.2014 05:00 6,8 C 66 % 1020,2 hPa 0,0 l/m 0,0 km/h (0 Bft) SW 225 0,9 C 16,1 C 0,0 km/h (0 Bft)
15.03.2014 05:05 6,7 C 64 % 1020,0 hPa 0,0 l/m 0,0 km/h (0 Bft) SW 225 0,4 C 16,1 C 0,0 km/h (0 Bft)
15.03.2014 05:10 6,4 C 64 % 1020,0 hPa 0,0 l/m 0,0 km/h (0 Bft) SW 225 0,1 C 16,1 C 0,0 km/h (0 Bft)
15.03.2014 05:15 6,3 C 64 % 1020,0 hPa 0,0 l/m 0,0 km/h (0 Bft) SW 225 0,0 C 16,1 C 0,0 km/h (0 Bft)
15.03.2014 05:20 6,1 C 64 % 1020,0 hPa 0,0 l/m 0,0 km/h (0 Bft) SW 225 -0,2 C 16,1 C 0,0 km/h (0 Bft)
15.03.2014 05:25 6,4 C 64 % 1019,8 hPa 0,0 l/m 0,0 km/h (0 Bft) SW 225 0,1 C 16,1 C 0,0 km/h (0 Bft)
15.03.2014 05:28 6,5 C 63 % 1019,8 hPa 0,0 l/m 0,0 km/h (0 Bft) SW 225 -0,0 C 16,1 C 0,0 km/h (0 Bft)
15.03.2014 05:30 6,5 C 63 % 1019,8 hPa 0,0 l/m 0,0 km/h (0 Bft) SW 225 -0,0 C 16,1 C 0,0 km/h (0 Bft)
15.03.2014 05:35 6,7 C 62 % 1019,8 hPa 0,0 l/m 0,0 km/h (0 Bft) SW 225 -0,1 C 16,1 C 0,0 km/h (0 Bft)
15.03.2014 05:40 7,1 C 61 % 1019,8 hPa 0,0 l/m 0,0 km/h (0 Bft) SW 225 0,1 C 16,1 C 0,0 km/h (0 Bft)
15.03.2014 05:45 7,0 C 60 % 1019,7 hPa 0,0 l/m 0,0 km/h (0 Bft) SW 225 -0,2 C 16,1 C 0,0 km/h (0 Bft)
15.03.2014 05:50 7,0 C 60 % 1019,7 hPa 0,0 l/m 0,0 km/h (0 Bft) SW 225 -0,2 C 16,1 C 0,0 km/h (0 Bft)
15.03.2014 05:55 7,0 C 60 % 1019,7 hPa 0,0 l/m 0,0 km/h (0 Bft) SW 225 -0,2 C 16,1 C 0,0 km/h (0 Bft)
15.03.2014 06:00 6,9 C 60 % 1019,7 hPa 0,0 l/m 0,0 km/h (0 Bft) SW 225 -0,3 C 16,1 C 0,0 km/h (0 Bft)
15.03.2014 06:05 6,7 C 61 % 1019,8 hPa 0,0 l/m 0,0 km/h (0 Bft) SW 225 -0,3 C 16,1 C 0,0 km/h (0 Bft)
15.03.2014 06:10 6,9 C 60 % 1019,8 hPa 0,0 l/m 0,0 km/h (0 Bft) SW 225 -0,3 C 16,1 C 0,0 km/h (0 Bft)
15.03.2014 06:15 7,2 C 60 % 1019,8 hPa 0,0 l/m 0,0 km/h (0 Bft) SW 225 -0,0 C 16,1 C 0,0 km/h (0 Bft)
15.03.2014 06:20 6,9 C 60 % 1019,8 hPa 0,0 l/m 0,0 km/h (0 Bft) SW 225 -0,3 C 16,1 C 0,0 km/h (0 Bft)
15.03.2014 06:25 7,4 C 59 % 1019,8 hPa 0,0 l/m 0,0 km/h (0 Bft) SW 225 -0,1 C 16,1 C 0,0 km/h (0 Bft)
15.03.2014 06:30 7,3 C 59 % 1019,8 hPa 0,0 l/m 0,0 km/h (0 Bft) SW 225 -0,2 C 16,1 C 0,0 km/h (0 Bft)
15.03.2014 06:35 7,1 C 59 % 1019,8 hPa 0,0 l/m 0,0 km/h (0 Bft) SW 225 -0,4 C 16,1 C 0,0 km/h (0 Bft)
15.03.2014 06:40 6,6 C 60 % 1019,8 hPa 0,0 l/m 0,0 km/h (0 Bft) SW 225 -0,6 C 16,1 C 0,0 km/h (0 Bft)
15.03.2014 06:45 7,0 C 60 % 1019,4 hPa 0,0 l/m 0,0 km/h (0 Bft) SW 225 -0,2 C 16,1 C 0,0 km/h (0 Bft)
15.03.2014 06:50 7,0 C 60 % 1019,4 hPa 0,0 l/m 0,0 km/h (0 Bft) SW 225 -0,2 C 16,1 C 0,0 km/h (0 Bft)
15.03.2014 06:55 7,1 C 60 % 1019,4 hPa 0,0 l/m 0,0 km/h (0 Bft) SW 225 -0,1 C 16,1 C 0,0 km/h (0 Bft)
15.03.2014 07:00 7,2 C 60 % 1019,4 hPa 0,0 l/m 0,0 km/h (0 Bft) SW 225 -0,0 C 16,1 C 0,0 km/h (0 Bft)
15.03.2014 07:05 7,3 C 59 % 1019,2 hPa 0,0 l/m 0,0 km/h (0 Bft) SW 225 -0,2 C 16,1 C 0,0 km/h (0 Bft)
15.03.2014 07:10 7,1 C 60 % 1019,2 hPa 0,0 l/m 0,0 km/h (0 Bft) SW 225 -0,1 C 16,1 C 0,0 km/h (0 Bft)
15.03.2014 07:15 7,5 C 59 % 1019,2 hPa 0,0 l/m 0,0 km/h (0 Bft) SW 225 0,0 C 16,1 C 0,0 km/h (0 Bft)
15.03.2014 07:20 7,8 C 59 % 1019,2 hPa 0,0 l/m 0,0 km/h (0 Bft) SW 225 0,3 C 16,1 C 0,0 km/h (0 Bft)
15.03.2014 07:25 8,1 C 58 % 1019,2 hPa 0,0 l/m 0,0 km/h (0 Bft) SW 225 0,3 C 16,1 C 0,0 km/h (0 Bft)
15.03.2014 07:30 8,4 C 57 % 1019,2 hPa 0,0 l/m 0,0 km/h (0 Bft) SW 225 0,4 C 16,1 C 0,0 km/h (0 Bft)
15.03.2014 07:35 8,7 C 57 % 1019,2 hPa 0,0 l/m 0,0 km/h (0 Bft) SW 225 0,7 C 16,1 C 0,0 km/h (0 Bft)
15.03.2014 07:40 9,2 C 55 % 1019,2 hPa 0,0 l/m 0,0 km/h (0 Bft) SW 225 0,6 C 16,1 C 0,0 km/h (0 Bft)
15.03.2014 07:45 9,2 C 55 % 1019,7 hPa 0,0 l/m 0,0 km/h (0 Bft) SW 225 0,6 C 16,1 C 0,0 km/h (0 Bft)
15.03.2014 07:50 9,3 C 55 % 1019,7 hPa 0,0 l/m 0,0 km/h (0 Bft) SW 225 0,7 C 16,1 C 0,0 km/h (0 Bft)
15.03.2014 07:55 9,5 C 55 % 1019,7 hPa 0,0 l/m 0,0 km/h (0 Bft) SW 225 0,9 C 16,1 C 0,0 km/h (0 Bft)
15.03.2014 08:00 9,6 C 54 % 1019,7 hPa 0,0 l/m 0,0 km/h (0 Bft) SW 225 0,8 C 16,1 C 0,0 km/h (0 Bft)
15.03.2014 08:05 9,7 C 54 % 1019,4 hPa 0,0 l/m 0,0 km/h (0 Bft) SW 225 0,9 C 16,1 C 0,0 km/h (0 Bft)
15.03.2014 08:10 9,8 C 54 % 1019,4 hPa 0,0 l/m 0,0 km/h (0 Bft) SW 225 0,9 C 16,1 C 0,0 km/h (0 Bft)
15.03.2014 08:15 9,8 C 54 % 1019,4 hPa 0,0 l/m 0,0 km/h (0 Bft) SW 225 0,9 C 16,1 C 0,0 km/h (0 Bft)
15.03.2014 08:20 9,9 C 53 % 1019,4 hPa 0,0 l/m 0,0 km/h (0 Bft) SW 225 0,8 C 16,1 C 0,0 km/h (0 Bft)
15.03.2014 08:25 10,0 C 53 % 1019,7 hPa 0,0 l/m 0,0 km/h (0 Bft) SW 225 0,9 C 16,1 C 0,0 km/h (0 Bft)
15.03.2014 08:30 10,2 C 53 % 1019,7 hPa 0,0 l/m 0,0 km/h (0 Bft) SW 225 1,1 C 16,1 C 0,0 km/h (0 Bft)
15.03.2014 08:35 10,3 C 53 % 1019,7 hPa 0,0 l/m 0,0 km/h (0 Bft) SW 225 1,1 C 16,1 C 0,0 km/h (0 Bft)
15.03.2014 08:40 10,5 C 52 % 1019,7 hPa 0,0 l/m 0,0 km/h (0 Bft) SW 225 1,1 C 16,1 C 0,0 km/h (0 Bft)
15.03.2014 08:45 10,7 C 52 % 1019,8 hPa 0,0 l/m 0,0 km/h (0 Bft) SW 225 1,3 C 16,1 C 0,0 km/h (0 Bft)
15.03.2014 08:50 10,9 C 51 % 1019,8 hPa 0,0 l/m 0,0 km/h (0 Bft) SW 225 1,2 C 16,1 C 0,0 km/h (0 Bft)
15.03.2014 08:55 11,0 C 50 % 1019,8 hPa 0,0 l/m 0,0 km/h (0 Bft) SW 225 1,0 C 16,1 C 0,0 km/h (0 Bft)
15.03.2014 09:00 11,1 C 51 % 1019,8 hPa 0,0 l/m 0,0 km/h (0 Bft) SW 225 1,4 C 16,1 C 0,0 km/h (0 Bft)
15.03.2014 09:05 11,1 C 50 % 1020,1 hPa 0,0 l/m 0,0 km/h (0 Bft) SW 225 1,1 C 16,1 C 0,0 km/h (0 Bft)
15.03.2014 09:10 11,3 C 51 % 1020,1 hPa 0,0 l/m 0,0 km/h (0 Bft) SW 225 1,5 C 16,1 C 0,0 km/h (0 Bft)
15.03.2014 09:15 11,4 C 51 % 1020,1 hPa 0,0 l/m 0,0 km/h (0 Bft) SW 225 1,6 C 16,1 C 0,0 km/h (0 Bft)
15.03.2014 09:20 11,4 C 51 % 1020,1 hPa 0,0 l/m 0,0 km/h (0 Bft) SW 225 1,6 C 16,1 C 0,0 km/h (0 Bft)
15.03.2014 09:25 11,4 C 52 % 1020,0 hPa 0,0 l/m 0,0 km/h (0 Bft) SW 225 1,9 C 16,1 C 0,0 km/h (0 Bft)
15.03.2014 09:30 11,4 C 51 % 1020,0 hPa 0,0 l/m 0,0 km/h (0 Bft) SW 225 1,6 C 16,1 C 0,0 km/h (0 Bft)
15.03.2014 09:35 11,4 C 52 % 1020,0 hPa 0,0 l/m 0,0 km/h (0 Bft) SW 225 1,9 C 16,1 C 0,0 km/h (0 Bft)
15.03.2014 09:40 11,5 C 51 % 1020,0 hPa 0,0 l/m 0,0 km/h (0 Bft) SW 225 1,7 C 16,1 C 0,0 km/h (0 Bft)
15.03.2014 09:45 11,7 C 50 % 1019,8 hPa 0,0 l/m 0,0 km/h (0 Bft) SW 225 1,6 C 16,1 C 0,0 km/h (0 Bft)
15.03.2014 09:50 11,9 C 49 % 1019,8 hPa 0,0 l/m 0,0 km/h (0 Bft) SW 225 1,5 C 16,1 C 0,0 km/h (0 Bft)
15.03.2014 09:55 12,1 C 48 % 1019,8 hPa 0,0 l/m 0,0 km/h (0 Bft) SW 225 1,4 C 16,1 C 0,0 km/h (0 Bft)
15.03.2014 10:00 12,5 C 47 % 1019,8 hPa 0,0 l/m 0,0 km/h (0 Bft) SW 225 1,5 C 16,1 C 0,0 km/h (0 Bft)
15.03.2014 10:05 12,7 C 46 % 1019,8 hPa 0,0 l/m 0,0 km/h (0 Bft) SW 225 1,4 C 16,1 C 0,0 km/h (0 Bft)
15.03.2014 10:10 12,8 C 46 % 1019,8 hPa 0,0 l/m 0,0 km/h (0 Bft) SW 225 1,5 C 16,1 C 0,0 km/h (0 Bft)
15.03.2014 10:15 12,7 C 46 % 1019,8 hPa 0,0 l/m 0,0 km/h (0 Bft) SW 225 1,4 C 16,1 C 0,0 km/h (0 Bft)
15.03.2014 10:20 13,7 C 45 % 1019,8 hPa 0,0 l/m 0,0 km/h (0 Bft) SW 225 2,0 C 16,1 C 0,0 km/h (0 Bft)
15.03.2014 10:25 13,7 C 44 % 1019,7 hPa 0,0 l/m 0,0 km/h (0 Bft) SW 225 1,7 C 16,1 C 0,0 km/h (0 Bft)
15.03.2014 10:28 13,5 C 44 % 1019,7 hPa 0,0 l/m 0,0 km/h (0 Bft) SW 225 1,5 C 16,1 C 0,0 km/h (0 Bft)
15.03.2014 10:30 13,5 C 44 % 1019,7 hPa 0,0 l/m 0,0 km/h (0 Bft) SW 225 1,5 C 16,1 C 0,0 km/h (0 Bft)
15.03.2014 10:35 13,6 C 45 % 1019,7 hPa 0,0 l/m 0,0 km/h (0 Bft) SW 225 1,9 C 16,1 C 0,0 km/h (0 Bft)
15.03.2014 10:40 13,7 C 44 % 1019,7 hPa 0,0 l/m 0,0 km/h (0 Bft) SW 225 1,7 C 16,1 C 0,0 km/h (0 Bft)
15.03.2014 10:45 13,2 C 44 % 1019,7 hPa 0,0 l/m 0,0 km/h (0 Bft) SW 225 1,2 C 16,1 C 0,0 km/h (0 Bft)
15.03.2014 10:50 12,8 C 45 % 1019,7 hPa 0,0 l/m 0,0 km/h (0 Bft) SW 225 1,2 C 16,1 C 0,0 km/h (0 Bft)
15.03.2014 10:55 13,2 C 44 % 1019,7 hPa 0,0 l/m 0,0 km/h (0 Bft) SW 225 1,2 C 16,1 C 0,0 km/h (0 Bft)
15.03.2014 11:00 13,0 C 42 % 1019,7 hPa 0,0 l/m 0,0 km/h (0 Bft) SW 225 0,4 C 16,1 C 0,0 km/h (0 Bft)
15.03.2014 11:05 13,1 C 42 % 1019,4 hPa 0,0 l/m 0,0 km/h (0 Bft) SW 225 0,5 C 16,1 C 0,0 km/h (0 Bft)
15.03.2014 11:10 13,0 C 42 % 1019,4 hPa 0,0 l/m 0,0 km/h (0 Bft) SW 225 0,4 C 16,1 C 0,0 km/h (0 Bft)
15.03.2014 11:15 13,0 C 41 % 1019,4 hPa 0,0 l/m 0,0 km/h (0 Bft) SW 225 0,1 C 16,1 C 0,0 km/h (0 Bft)
15.03.2014 11:20 12,9 C 44 % 1019,4 hPa 0,0 l/m 0,0 km/h (0 Bft) SW 225 1,0 C 16,1 C 0,0 km/h (0 Bft)
15.03.2014 11:25 13,6 C 42 % 1020,1 hPa 0,0 l/m 0,0 km/h (0 Bft) SW 225 0,9 C 16,1 C 0,0 km/h (0 Bft)
15.03.2014 11:30 13,1 C 42 % 1020,1 hPa 0,0 l/m 0,0 km/h (0 Bft) SW 225 0,5 C 16,1 C 0,0 km/h (0 Bft)
15.03.2014 11:35 12,9 C 44 % 1020,1 hPa 0,0 l/m 0,0 km/h (0 Bft) SW 225 1,0 C 16,1 C 0,0 km/h (0 Bft)
15.03.2014 11:40 12,9 C 44 % 1020,1 hPa 0,0 l/m 0,0 km/h (0 Bft) SW 225 1,0 C 16,1 C 0,0 km/h (0 Bft)
15.03.2014 11:45 12,7 C 43 % 1020,0 hPa 0,0 l/m 0,0 km/h (0 Bft) SW 225 0,5 C 16,1 C 0,0 km/h (0 Bft)
15.03.2014 11:50 12,7 C 44 % 1020,0 hPa 0,0 l/m 0,0 km/h (0 Bft) SW 225 0,8 C 16,1 C 0,0 km/h (0 Bft)
15.03.2014 11:55 12,4 C 43 % 1020,0 hPa 0,0 l/m 0,0 km/h (0 Bft) SW 225 0,2 C 16,1 C 0,0 km/h (0 Bft)
15.03.2014 12:00 12,3 C 43 % 1020,0 hPa 0,0 l/m 0,0 km/h (0 Bft) SW 225 0,1 C 16,1 C 0,0 km/h (0 Bft)
15.03.2014 12:05 12,3 C 44 % 1019,2 hPa 0,0 l/m 0,0 km/h (0 Bft) SW 225 0,4 C 16,1 C 0,0 km/h (0 Bft)
15.03.2014 12:10 12,4 C 43 % 1019,2 hPa 0,0 l/m 0,0 km/h (0 Bft) SW 225 0,2 C 16,1 C 0,0 km/h (0 Bft)
15.03.2014 12:15 12,1 C 43 % 1019,2 hPa 0,0 l/m 0,0 km/h (0 Bft) SW 225 -0,1 C 16,1 C 0,0 km/h (0 Bft)
15.03.2014 12:20 12,1 C 44 % 1019,2 hPa 0,0 l/m 0,0 km/h (0 Bft) SW 225 0,2 C 16,1 C 0,0 km/h (0 Bft)
15.03.2014 12:25 12,2 C 45 % 1019,6 hPa 0,0 l/m 0,0 km/h (0 Bft) SW 225 0,6 C 16,1 C 0,0 km/h (0 Bft)
15.03.2014 12:30 12,5 C 45 % 1019,6 hPa 0,0 l/m 0,0 km/h (0 Bft) SW 225 0,9 C 16,1 C 0,0 km/h (0 Bft)
15.03.2014 12:35 12,6 C 46 % 1019,6 hPa 0,0 l/m 0,0 km/h (0 Bft) SW 225 1,3 C 16,1 C 0,0 km/h (0 Bft)
15.03.2014 12:40 12,7 C 46 % 1019,6 hPa 0,0 l/m 0,0 km/h (0 Bft) SW 225 1,4 C 16,1 C 0,0 km/h (0 Bft)
15.03.2014 12:45 12,6 C 45 % 1019,2 hPa 0,0 l/m 0,0 km/h (0 Bft) SW 225 1,0 C 16,1 C 0,0 km/h (0 Bft)
15.03.2014 12:50 12,7 C 45 % 1019,2 hPa 0,0 l/m 0,0 km/h (0 Bft) SW 225 1,1 C 16,1 C 0,0 km/h (0 Bft)
15.03.2014 12:55 13,1 C 43 % 1019,2 hPa 0,0 l/m 0,0 km/h (0 Bft) SW 225 0,8 C 16,1 C 0,0 km/h (0 Bft)
15.03.2014 13:00 12,6 C 44 % 1019,2 hPa 0,0 l/m 0,0 km/h (0 Bft) SW 225 0,7 C 16,1 C 0,0 km/h (0 Bft)
15.03.2014 13:05 12,0 C 45 % 1019,7 hPa 0,0 l/m 0,0 km/h (0 Bft) SW 225 0,4 C 16,1 C 0,0 km/h (0 Bft)
15.03.2014 13:10 12,0 C 45 % 1019,7 hPa 0,0 l/m 0,0 km/h (0 Bft) SW 225 0,4 C 16,1 C 0,0 km/h (0 Bft)
15.03.2014 13:15 12,0 C 45 % 1019,7 hPa 0,0 l/m 0,0 km/h (0 Bft) SW 225 0,4 C 16,1 C 0,0 km/h (0 Bft)
15.03.2014 13:20 12,4 C 44 % 1019,7 hPa 0,0 l/m 0,0 km/h (0 Bft) SW 225 0,5 C 16,1 C 0,0 km/h (0 Bft)
15.03.2014 13:25 12,1 C 45 % 1019,2 hPa 0,0 l/m 0,0 km/h (0 Bft) SW 225 0,5 C 16,1 C 0,0 km/h (0 Bft)
15.03.2014 13:30 11,5 C 46 % 1019,2 hPa 0,0 l/m 0,0 km/h (0 Bft) SW 225 0,3 C 16,1 C 0,0 km/h (0 Bft)
15.03.2014 13:35 11,3 C 47 % 1019,2 hPa 0,0 l/m 0,0 km/h (0 Bft) SW 225 0,4 C 16,1 C 0,0 km/h (0 Bft)
15.03.2014 13:40 10,9 C 48 % 1019,2 hPa 0,0 l/m 0,0 km/h (0 Bft) SW 225 0,3 C 16,1 C 0,0 km/h (0 Bft)
15.03.2014 13:45 10,8 C 48 % 1019,9 hPa 0,0 l/m 0,0 km/h (0 Bft) SW 225 0,2 C 16,1 C 0,0 km/h (0 Bft)
15.03.2014 13:50 10,8 C 49 % 1019,9 hPa 0,0 l/m 0,0 km/h (0 Bft) SW 225 0,5 C 16,1 C 0,0 km/h (0 Bft)
15.03.2014 13:55 10,9 C 49 % 1019,9 hPa 0,0 l/m 0,0 km/h (0 Bft) SW 225 0,6 C 16,1 C 0,0 km/h (0 Bft)
15.03.2014 14:00 11,2 C 49 % 1019,9 hPa 0,0 l/m 0,0 km/h (0 Bft) SW 225 0,9 C 16,1 C 0,0 km/h (0 Bft)
15.03.2014 14:05 11,2 C 48 % 1019,7 hPa 0,0 l/m 0,0 km/h (0 Bft) SW 225 0,6 C 16,1 C 0,0 km/h (0 Bft)
15.03.2014 14:10 11,3 C 48 % 1019,7 hPa 0,0 l/m 0,0 km/h (0 Bft) SW 225 0,7 C 16,1 C 0,0 km/h (0 Bft)
15.03.2014 14:15 11,7 C 47 % 1019,7 hPa 0,0 l/m 0,0 km/h (0 Bft) SW 225 0,8 C 16,1 C 0,0 km/h (0 Bft)
15.03.2014 14:20 11,9 C 46 % 1019,7 hPa 0,0 l/m 0,0 km/h (0 Bft) SW 225 0,7 C 16,1 C 0,0 km/h (0 Bft)
15.03.2014 14:25 11,3 C 47 % 1019,8 hPa 0,0 l/m 0,0 km/h (0 Bft) SW 225 0,4 C 16,1 C 0,0 km/h (0 Bft)
15.03.2014 14:30 10,7 C 47 % 1019,8 hPa 0,0 l/m 0,0 km/h (0 Bft) SW 225 -0,1 C 16,1 C 0,0 km/h (0 Bft)
15.03.2014 14:35 10,4 C 48 % 1019,8 hPa 0,0 l/m 0,0 km/h (0 Bft) SW 225 -0,1 C 16,1 C 0,0 km/h (0 Bft)
15.03.2014 14:40 10,2 C 50 % 1019,8 hPa 0,0 l/m 0,0 km/h (0 Bft) SW 225 0,3 C 16,1 C 0,0 km/h (0 Bft)
15.03.2014 14:45 9,5 C 53 % 1019,8 hPa 0,0 l/m 0,0 km/h (0 Bft) SW 225 0,4 C 16,1 C 0,0 km/h (0 Bft)
15.03.2014 14:50 9,6 C 53 % 1019,8 hPa 0,0 l/m 0,0 km/h (0 Bft) SW 225 0,5 C 16,1 C 0,0 km/h (0 Bft)
15.03.2014 14:55 9,7 C 52 % 1019,8 hPa 0,0 l/m 0,0 km/h (0 Bft) SW 225 0,3 C 16,1 C 0,0 km/h (0 Bft)
15.03.2014 15:00 9,6 C 50 % 1019,8 hPa 0,0 l/m 0,0 km/h (0 Bft) SW 225 -0,3 C 16,1 C 0,0 km/h (0 Bft)
15.03.2014 15:05 9,3 C 55 % 1020,0 hPa 0,0 l/m 0,0 km/h (0 Bft) SW 225 0,7 C 16,1 C 0,0 km/h (0 Bft)
15.03.2014 15:10 8,6 C 58 % 1020,0 hPa 0,0 l/m 0,0 km/h (0 Bft) SW 225 0,8 C 16,1 C 0,0 km/h (0 Bft)
15.03.2014 15:15 8,4 C 59 % 1020,0 hPa 0,0 l/m 0,0 km/h (0 Bft) SW 225 0,9 C 16,1 C 0,0 km/h (0 Bft)
15.03.2014 15:20 8,2 C 61 % 1020,0 hPa 0,0 l/m 0,0 km/h (0 Bft) SW 225 1,1 C 16,1 C 0,0 km/h (0 Bft)
15.03.2014 15:25 8,0 C 63 % 1020,2 hPa 0,0 l/m 0,0 km/h (0 Bft) SW 225 1,4 C 16,1 C 0,0 km/h (0 Bft)
15.03.2014 15:29 7,5 C 67 % 1020,2 hPa 0,0 l/m 0,0 km/h (0 Bft) SW 225 1,8 C 16,1 C 0,0 km/h (0 Bft)
15.03.2014 15:30 7,5 C 67 % 1020,2 hPa 0,0 l/m 0,0 km/h (0 Bft) SW 225 1,8 C 16,1 C 0,0 km/h (0 Bft)
15.03.2014 15:35 7,4 C 68 % 1020,2 hPa 0,0 l/m 0,0 km/h (0 Bft) SW 225 1,9 C 16,1 C 0,0 km/h (0 Bft)
15.03.2014 15:40 7,1 C 69 % 1020,2 hPa 0,0 l/m 0,0 km/h (0 Bft) SW 225 1,8 C 16,1 C 0,0 km/h (0 Bft)
15.03.2014 15:45 7,0 C 70 % 1019,9 hPa 0,0 l/m 0,0 km/h (0 Bft) SW 225 1,9 C 16,1 C 0,0 km/h (0 Bft)
15.03.2014 15:50 7,0 C 69 % 1019,9 hPa 0,0 l/m 0,0 km/h (0 Bft) SW 225 1,7 C 16,1 C 0,0 km/h (0 Bft)
15.03.2014 15:55 7,0 C 68 % 1019,9 hPa 0,0 l/m 0,0 km/h (0 Bft) SW 225 1,5 C 16,1 C 0,0 km/h (0 Bft)
15.03.2014 16:00 6,8 C 69 % 1019,9 hPa 0,0 l/m 0,0 km/h (0 Bft) SW 225 1,5 C 16,1 C 0,0 km/h (0 Bft)
15.03.2014 16:05 6,9 C 69 % 1020,1 hPa 0,0 l/m 0,0 km/h (0 Bft) SW 225 1,6 C 16,1 C 0,0 km/h (0 Bft)
15.03.2014 16:10 6,9 C 68 % 1020,1 hPa 0,0 l/m 0,0 km/h (0 Bft) SW 225 1,4 C 16,1 C 0,0 km/h (0 Bft)
15.03.2014 16:15 6,9 C 67 % 1020,1 hPa 0,0 l/m 0,0 km/h (0 Bft) SW 225 1,2 C 16,1 C 0,0 km/h (0 Bft)
15.03.2014 16:20 6,9 C 66 % 1020,1 hPa 0,0 l/m 0,0 km/h (0 Bft) SW 225 1,0 C 16,1 C 0,0 km/h (0 Bft)
15.03.2014 16:25 6,8 C 68 % 1019,9 hPa 0,0 l/m 0,0 km/h (0 Bft) SW 225 1,3 C 16,1 C 0,0 km/h (0 Bft)
15.03.2014 16:30 6,4 C 70 % 1019,9 hPa 0,0 l/m 0,0 km/h (0 Bft) SW 225 1,3 C 16,1 C 0,0 km/h (0 Bft)
15.03.2014 16:35 6,1 C 73 % 1019,9 hPa 0,0 l/m 0,0 km/h (0 Bft) SW 225 1,6 C 16,1 C 0,0 km/h (0 Bft)
15.03.2014 16:40 5,7 C 78 % 1019,9 hPa 0,0 l/m 0,0 km/h (0 Bft) SW 225 2,2 C 16,1 C 0,0 km/h (0 Bft)
15.03.2014 16:45 5,4 C 81 % 1020,2 hPa 0,0 l/m 0,0 km/h (0 Bft) SW 225 2,4 C 16,1 C 0,0 km/h (0 Bft)
15.03.2014 16:50 5,1 C 85 % 1020,2 hPa 0,0 l/m 0,0 km/h (0 Bft) SW 225 2,8 C 16,1 C 0,0 km/h (0 Bft)
15.03.2014 16:55 5,0 C 87 % 1020,2 hPa 0,0 l/m 0,0 km/h (0 Bft) SW 225 3,0 C 16,1 C 0,0 km/h (0 Bft)
15.03.2014 17:00 4,8 C 89 % 1020,2 hPa 0,0 l/m 0,0 km/h (0 Bft) SW 225 3,1 C 16,1 C 0,0 km/h (0 Bft)
15.03.2014 17:05 4,7 C 89 % 1020,4 hPa 0,0 l/m 0,0 km/h (0 Bft) SW 225 3,0 C 16,1 C 0,0 km/h (0 Bft)
15.03.2014 17:10 4,6 C 90 % 1020,4 hPa 0,0 l/m 0,0 km/h (0 Bft) SW 225 3,1 C 16,1 C 0,0 km/h (0 Bft)
15.03.2014 17:15 4,6 C 91 % 1020,4 hPa 0,0 l/m 0,0 km/h (0 Bft) SW 225 3,3 C 16,1 C 0,0 km/h (0 Bft)
15.03.2014 17:20 4,5 C 91 % 1020,4 hPa 0,0 l/m 0,0 km/h (0 Bft) SW 225 3,2 C 16,1 C 0,0 km/h (0 Bft)
15.03.2014 17:25 4,5 C 92 % 1020,7 hPa 0,0 l/m 0,0 km/h (0 Bft) SW 225 3,3 C 16,1 C 0,0 km/h (0 Bft)
15.03.2014 17:30 4,5 C 92 % 1020,7 hPa 0,0 l/m 0,0 km/h (0 Bft) SW 225 3,3 C 16,1 C 0,0 km/h (0 Bft)
15.03.2014 17:35 4,4 C 92 % 1020,7 hPa 0,0 l/m 0,0 km/h (0 Bft) SW 225 3,2 C 16,1 C 0,0 km/h (0 Bft)
15.03.2014 17:40 4,3 C 92 % 1020,7 hPa 0,0 l/m 0,0 km/h (0 Bft) SW 225 3,1 C 16,1 C 0,0 km/h (0 Bft)
15.03.2014 17:45 4,3 C 92 % 1020,8 hPa 0,0 l/m 0,0 km/h (0 Bft) SW 225 3,1 C 16,1 C 0,0 km/h (0 Bft)
15.03.2014 17:50 4,2 C 93 % 1020,8 hPa 0,0 l/m 0,0 km/h (0 Bft) SW 225 3,2 C 16,1 C 0,0 km/h (0 Bft)
15.03.2014 17:55 4,1 C 93 % 1020,8 hPa 0,0 l/m 0,0 km/h (0 Bft) SW 225 3,1 C 16,1 C 0,0 km/h (0 Bft)
15.03.2014 18:00 3,9 C 93 % 1020,8 hPa 0,0 l/m 0,0 km/h (0 Bft) SW 225 2,9 C 16,1 C 0,0 km/h (0 Bft)
15.03.2014 18:05 3,9 C 93 % 1021,3 hPa 0,0 l/m 0,0 km/h (0 Bft) SW 225 2,9 C 16,1 C 0,0 km/h (0 Bft)
15.03.2014 18:10 3,9 C 93 % 1021,3 hPa 0,0 l/m 0,0 km/h (0 Bft) SW 225 2,9 C 16,1 C 0,0 km/h (0 Bft)
15.03.2014 18:15 3,9 C 93 % 1021,3 hPa 0,0 l/m 0,0 km/h (0 Bft) SW 225 2,9 C 16,1 C 0,0 km/h (0 Bft)
15.03.2014 18:20 3,9 C 93 % 1021,3 hPa 0,0 l/m 0,0 km/h (0 Bft) SW 225 2,9 C 16,1 C 0,0 km/h (0 Bft)
15.03.2014 18:25 3,9 C 94 % 1021,3 hPa 0,0 l/m 0,0 km/h (0 Bft) SW 225 3,0 C 16,1 C 0,0 km/h (0 Bft)
15.03.2014 18:30 3,9 C 94 % 1021,3 hPa 0,0 l/m 0,0 km/h (0 Bft) SW 225 3,0 C 16,1 C 0,0 km/h (0 Bft)
15.03.2014 18:35 4,0 C 94 % 1021,3 hPa 0,0 l/m 0,0 km/h (0 Bft) SW 225 3,1 C 16,1 C 0,0 km/h (0 Bft)
15.03.2014 18:40 3,9 C 94 % 1021,3 hPa 0,0 l/m 0,0 km/h (0 Bft) SW 225 3,0 C 16,1 C 0,0 km/h (0 Bft)
15.03.2014 18:45 3,9 C 94 % 1021,4 hPa 0,0 l/m 0,0 km/h (0 Bft) SW 225 3,0 C 16,1 C 0,0 km/h (0 Bft)
15.03.2014 18:50 3,8 C 94 % 1021,4 hPa 0,0 l/m 0,0 km/h (0 Bft) SW 225 2,9 C 16,1 C 0,0 km/h (0 Bft)
15.03.2014 18:55 3,8 C 94 % 1021,4 hPa 0,0 l/m 0,0 km/h (0 Bft) SW 225 2,9 C 16,1 C 0,0 km/h (0 Bft)
15.03.2014 19:00 3,8 C 94 % 1021,4 hPa 0,0 l/m 0,0 km/h (0 Bft) SW 225 2,9 C 16,1 C 0,0 km/h (0 Bft)
15.03.2014 19:05 3,8 C 94 % 1021,6 hPa 0,0 l/m 0,0 km/h (0 Bft) SW 225 2,9 C 16,1 C 0,0 km/h (0 Bft)
15.03.2014 19:10 3,7 C 94 % 1021,6 hPa 0,0 l/m 0,0 km/h (0 Bft) SW 225 2,8 C 16,1 C 0,0 km/h (0 Bft)
15.03.2014 19:15 3,7 C 94 % 1021,6 hPa 0,0 l/m 0,0 km/h (0 Bft) SW 225 2,8 C 16,1 C 0,0 km/h (0 Bft)
15.03.2014 19:20 3,7 C 94 % 1021,6 hPa 0,0 l/m 0,0 km/h (0 Bft) SW 225 2,8 C 16,1 C 0,0 km/h (0 Bft)
15.03.2014 19:25 3,7 C 94 % 1021,8 hPa 0,0 l/m 0,0 km/h (0 Bft) SW 225 2,8 C 16,1 C 0,0 km/h (0 Bft)
15.03.2014 19:30 3,7 C 94 % 1021,8 hPa 0,0 l/m 0,0 km/h (0 Bft) SW 225 2,8 C 16,1 C 0,0 km/h (0 Bft)
15.03.2014 19:35 3,7 C 94 % 1021,8 hPa 0,0 l/m 0,0 km/h (0 Bft) SW 225 2,8 C 16,1 C 0,0 km/h (0 Bft)
15.03.2014 19:40 3,7 C 95 % 1021,8 hPa 0,0 l/m 0,0 km/h (0 Bft) SW 225 3,0 C 16,1 C 0,0 km/h (0 Bft)
15.03.2014 19:45 3,7 C 95 % 1021,8 hPa 0,0 l/m 0,0 km/h (0 Bft) SW 225 3,0 C 16,1 C 0,0 km/h (0 Bft)
15.03.2014 19:50 3,7 C 95 % 1021,8 hPa 0,0 l/m 0,0 km/h (0 Bft) SW 225 3,0 C 16,1 C 0,0 km/h (0 Bft)
15.03.2014 19:55 3,6 C 95 % 1021,8 hPa 0,0 l/m 0,0 km/h (0 Bft) SW 225 2,9 C 16,1 C 0,0 km/h (0 Bft)
15.03.2014 20:00 3,6 C 95 % 1021,8 hPa 0,0 l/m 0,0 km/h (0 Bft) SW 225 2,9 C 16,1 C 0,0 km/h (0 Bft)
15.03.2014 20:05 3,6 C 95 % 1021,9 hPa 0,0 l/m 0,0 km/h (0 Bft) SW 225 2,9 C 16,1 C 0,0 km/h (0 Bft)
15.03.2014 20:10 3,6 C 95 % 1021,9 hPa 0,0 l/m 0,0 km/h (0 Bft) SW 225 2,9 C 16,1 C 0,0 km/h (0 Bft)
15.03.2014 20:15 3,6 C 95 % 1021,9 hPa 0,0 l/m 0,0 km/h (0 Bft) SW 225 2,9 C 16,1 C 0,0 km/h (0 Bft)
15.03.2014 20:20 3,6 C 95 % 1021,9 hPa 0,0 l/m 0,0 km/h (0 Bft) SW 225 2,9 C 16,1 C 0,0 km/h (0 Bft)
15.03.2014 20:25 3,6 C 95 % 1022,1 hPa 0,0 l/m 0,0 km/h (0 Bft) SW 225 2,9 C 16,1 C 0,0 km/h (0 Bft)
15.03.2014 20:28 3,6 C 95 % 1022,1 hPa 0,0 l/m 0,0 km/h (0 Bft) SW 225 2,9 C 16,1 C 0,0 km/h (0 Bft)
15.03.2014 20:30 3,6 C 95 % 1022,1 hPa 0,0 l/m 0,0 km/h (0 Bft) SW 225 2,9 C 16,1 C 0,0 km/h (0 Bft)
15.03.2014 20:35 3,6 C 95 % 1022,1 hPa 0,0 l/m 0,0 km/h (0 Bft) SW 225 2,9 C 16,1 C 0,0 km/h (0 Bft)
15.03.2014 20:40 3,6 C 95 % 1022,1 hPa 0,0 l/m 0,0 km/h (0 Bft) SW 225 2,9 C 16,1 C 0,0 km/h (0 Bft)
15.03.2014 20:45 3,7 C 95 % 1022,1 hPa 0,0 l/m 0,0 km/h (0 Bft) SW 225 3,0 C 16,1 C 0,0 km/h (0 Bft)
15.03.2014 20:50 3,7 C 95 % 1022,1 hPa 0,0 l/m 0,0 km/h (0 Bft) SW 225 3,0 C 16,1 C 0,0 km/h (0 Bft)
15.03.2014 20:55 3,7 C 95 % 1022,1 hPa 0,0 l/m 0,0 km/h (0 Bft) SW 225 3,0 C 16,1 C 0,0 km/h (0 Bft)
15.03.2014 21:00 3,7 C 95 % 1022,1 hPa 0,0 l/m 0,0 km/h (0 Bft) SW 225 3,0 C 16,1 C 0,0 km/h (0 Bft)
15.03.2014 21:05 3,7 C 95 % 1022,1 hPa 0,0 l/m 0,0 km/h (0 Bft) SW 225 3,0 C 16,1 C 0,0 km/h (0 Bft)
15.03.2014 21:10 3,7 C 95 % 1022,1 hPa 0,0 l/m 0,0 km/h (0 Bft) SW 225 3,0 C 16,1 C 0,0 km/h (0 Bft)
15.03.2014 21:15 3,6 C 95 % 1022,1 hPa 0,0 l/m 0,0 km/h (0 Bft) SW 225 2,9 C 16,1 C 0,0 km/h (0 Bft)
15.03.2014 21:20 3,6 C 95 % 1022,1 hPa 0,0 l/m 0,0 km/h (0 Bft) SW 225 2,9 C 16,1 C 0,0 km/h (0 Bft)
15.03.2014 21:25 3,6 C 95 % 1022,2 hPa 0,0 l/m 0,0 km/h (0 Bft) SW 225 2,9 C 16,1 C 0,0 km/h (0 Bft)
15.03.2014 21:30 3,6 C 95 % 1022,2 hPa 0,0 l/m 0,0 km/h (0 Bft) SW 225 2,9 C 16,1 C 0,0 km/h (0 Bft)
15.03.2014 21:35 3,6 C 95 % 1022,2 hPa 0,0 l/m 0,0 km/h (0 Bft) SW 225 2,9 C 16,1 C 0,0 km/h (0 Bft)
15.03.2014 21:40 3,6 C 95 % 1022,2 hPa 0,0 l/m 0,0 km/h (0 Bft) SW 225 2,9 C 16,1 C 0,0 km/h (0 Bft)
15.03.2014 21:45 3,6 C 95 % 1022,1 hPa 0,0 l/m 0,0 km/h (0 Bft) SW 225 2,9 C 16,1 C 0,0 km/h (0 Bft)
15.03.2014 21:50 3,6 C 95 % 1022,1 hPa 0,0 l/m 0,0 km/h (0 Bft) SW 225 2,9 C 16,1 C 0,0 km/h (0 Bft)
15.03.2014 21:55 3,5 C 95 % 1022,1 hPa 0,0 l/m 0,0 km/h (0 Bft) SW 225 2,8 C 16,1 C 0,0 km/h (0 Bft)
15.03.2014 22:00 3,6 C 95 % 1022,1 hPa 0,0 l/m 0,0 km/h (0 Bft) SW 225 2,9 C 16,1 C 0,0 km/h (0 Bft)
15.03.2014 22:05 3,6 C 95 % 1022,3 hPa 0,0 l/m 0,0 km/h (0 Bft) SW 225 2,9 C 16,1 C 0,0 km/h (0 Bft)
15.03.2014 22:10 3,6 C 95 % 1022,3 hPa 0,0 l/m 0,0 km/h (0 Bft) SW 225 2,9 C 16,1 C 0,0 km/h (0 Bft)
15.03.2014 22:15 3,6 C 95 % 1022,3 hPa 0,0 l/m 0,0 km/h (0 Bft) SW 225 2,9 C 16,1 C 0,0 km/h (0 Bft)
15.03.2014 22:20 3,6 C 95 % 1022,3 hPa 0,0 l/m 0,0 km/h (0 Bft) SW 225 2,9 C 16,1 C 0,0 km/h (0 Bft)
15.03.2014 22:25 3,6 C 95 % 1022,1 hPa 0,0 l/m 0,0 km/h (0 Bft) SW 225 2,9 C 16,1 C 0,0 km/h (0 Bft)
15.03.2014 22:30 3,6 C 95 % 1022,1 hPa 0,0 l/m 0,0 km/h (0 Bft) SW 225 2,9 C 16,1 C 0,0 km/h (0 Bft)
15.03.2014 22:35 3,6 C 95 % 1022,1 hPa 0,0 l/m 0,0 km/h (0 Bft) SW 225 2,9 C 16,1 C 0,0 km/h (0 Bft)
15.03.2014 22:40 3,6 C 95 % 1022,1 hPa 0,0 l/m 0,0 km/h (0 Bft) SW 225 2,9 C 16,1 C 0,0 km/h (0 Bft)
15.03.2014 22:45 3,6 C 95 % 1021,9 hPa 0,0 l/m 0,0 km/h (0 Bft) SW 225 2,9 C 16,1 C 0,0 km/h (0 Bft)
15.03.2014 22:50 3,6 C 95 % 1021,9 hPa 0,0 l/m 0,0 km/h (0 Bft) SW 225 2,9 C 16,1 C 0,0 km/h (0 Bft)
15.03.2014 22:55 3,6 C 95 % 1021,9 hPa 0,0 l/m 0,0 km/h (0 Bft) SW 225 2,9 C 16,1 C 0,0 km/h (0 Bft)
15.03.2014 23:00 3,6 C 95 % 1021,9 hPa 0,0 l/m 0,0 km/h (0 Bft) SW 225 2,9 C 16,1 C 0,0 km/h (0 Bft)
15.03.2014 23:05 3,6 C 95 % 1022,2 hPa 0,0 l/m 0,0 km/h (0 Bft) SW 225 2,9 C 16,1 C 0,0 km/h (0 Bft)
15.03.2014 23:10 3,6 C 95 % 1022,2 hPa 0,0 l/m 0,0 km/h (0 Bft) SW 225 2,9 C 16,1 C 0,0 km/h (0 Bft)
15.03.2014 23:15 3,5 C 95 % 1022,2 hPa 0,0 l/m 0,0 km/h (0 Bft) SW 225 2,8 C 16,1 C 0,0 km/h (0 Bft)
15.03.2014 23:20 3,5 C 95 % 1022,2 hPa 0,0 l/m 0,0 km/h (0 Bft) SW 225 2,8 C 16,1 C 0,0 km/h (0 Bft)
15.03.2014 23:25 3,5 C 95 % 1022,0 hPa 0,0 l/m 0,0 km/h (0 Bft) SW 225 2,8 C 16,1 C 0,0 km/h (0 Bft)
15.03.2014 23:30 3,5 C 95 % 1022,0 hPa 0,0 l/m 0,0 km/h (0 Bft) SW 225 2,8 C 16,1 C 0,0 km/h (0 Bft)
15.03.2014 23:35 3,5 C 95 % 1022,0 hPa 0,0 l/m 0,0 km/h (0 Bft) SW 225 2,8 C 16,1 C 0,0 km/h (0 Bft)
15.03.2014 23:40 3,5 C 95 % 1022,0 hPa 0,0 l/m 0,0 km/h (0 Bft) SW 225 2,8 C 16,1 C 0,0 km/h (0 Bft)
15.03.2014 23:45 3,5 C 95 % 1021,7 hPa 0,0 l/m 0,0 km/h (0 Bft) SW 225 2,8 C 16,1 C 0,0 km/h (0 Bft)
15.03.2014 23:50 3,4 C 95 % 1021,7 hPa 0,0 l/m 0,0 km/h (0 Bft) SW 225 2,7 C 16,1 C 0,0 km/h (0 Bft)
15.03.2014 23:55 3,3 C 95 % 1021,7 hPa 0,0 l/m 0,0 km/h (0 Bft) SW 225 2,6 C 16,1 C 0,0 km/h (0 Bft)
_ Min-Zeit 00:45 11:15 13:40 - 23:55 - - 04:30 23:55 23:55
Minimum _ 1,4 C 41 % 1019,2 hPa - 0,0 km/h (0 Bft) - - -1,9 C 16,1 C 0,0 km/h (0 Bft)
_ Max-Zeit 10:40 23:55 00:00 23:55 23:55 - - 17:30 23:55 23:55
Maximum _ 13,7 C 95 % 1023,0 hPa 0,0 l/m 0,0 km/h
SW (0 Bft)
- - 3,3 C 16,1 C 0,0 km/h
SW (0 Bft)
Durchschnitt _ 7,1 C 69 % 1020,6 hPa #0,0 l/m 0,0 km/h (0 Bft) - - - 1,3 C 16,1 C 0,0 km/h (0 Bft)